Hourly Weather Urtaowul

Today, 23 April, Friday

Time Temperature Precipitation Wind Pressure Humidity
00:00 +13°C° 0 mm 2 mps 734 mmHg 57%
01:00 +13°C° 0 mm 1 mps 733 mmHg 58%
02:00 +13°C° 0 mm 1 mps 733 mmHg 59%
03:00 +12°C° 0 mm 1 mps 733 mmHg 59%
04:00 +12°C° 0 mm 1 mps 733 mmHg 59%
05:00 +12°C° 0 mm 1 mps 733 mmHg 59%
06:00 +13°C° 0 mm 1 mps 733 mmHg 54%
07:00 +15°C° 0 mm 1 mps 733 mmHg 49%
08:00 +16°C° 0 mm 1 mps 734 mmHg 44%
09:00 +19°C° 0 mm 1 mps 733 mmHg 39%
10:00 +21°C° 0 mm 1 mps 733 mmHg 35%
11:00 +22°C° 0 mm 1 mps 733 mmHg 30%
12:00 +23°C° 0 mm 2 mps 733 mmHg 27%
13:00 +24°C° 0 mm 2 mps 733 mmHg 25%
14:00 +25°C° 0 mm 2 mps 732 mmHg 22%
15:00 +25°C° 0 mm 2 mps 732 mmHg 22%
16:00 +25°C° 0 mm 2 mps 732 mmHg 23%
17:00 +25°C° 0 mm 2 mps 731 mmHg 23%
18:00 +23°C° 0 mm 2 mps 731 mmHg 30%
19:00 +20°C° 0 mm 2 mps 731 mmHg 37%
20:00 +18°C° 0 mm 2 mps 731 mmHg 44%
21:00 +17°C° 0 mm 2 mps 731 mmHg 47%
22:00 +17°C° 0 mm 2 mps 730 mmHg 50%
23:00 +16°C° 0 mm 2 mps 730 mmHg 53%

Tomorrow, 24 April, Saturday

Time Temperature Precipitation Wind Pressure Humidity
00:00 +16°C° 0 mm 2 mps 730 mmHg 52%
01:00 +16°C° 0 mm 2 mps 730 mmHg 51%
02:00 +15°C° 0 mm 2 mps 729 mmHg 50%
03:00 +15°C° 0 mm 2 mps 729 mmHg 49%
04:00 +15°C° 0 mm 2 mps 729 mmHg 47%
05:00 +14°C° 0 mm 2 mps 729 mmHg 46%
06:00 +16°C° 0 mm 2 mps 729 mmHg 43%
07:00 +18°C° 0 mm 1 mps 730 mmHg 39%
08:00 +20°C° 0 mm 1 mps 730 mmHg 36%
09:00 +22°C° 0 mm 1 mps 730 mmHg 32%
10:00 +23°C° 0 mm 1 mps 730 mmHg 29%
11:00 +25°C° 0 mm 1 mps 730 mmHg 25%
12:00 +25°C° 0 mm 1 mps 730 mmHg 24%
13:00 +26°C° 0 mm 2 mps 730 mmHg 22%
14:00 +27°C° 0 mm 2 mps 730 mmHg 21%
15:00 +26°C° 0 mm 2 mps 730 mmHg 25%
16:00 +25°C° 0 mm 3 mps 730 mmHg 29%
17:00 +24°C° 0 mm 3 mps 731 mmHg 32%
18:00 +22°C° 0 mm 3 mps 731 mmHg 34%
19:00 +21°C° 0 mm 2 mps 731 mmHg 36%
20:00 +19°C° 0 mm 2 mps 731 mmHg 38%
21:00 +19°C° 0 mm 2 mps 731 mmHg 39%
22:00 +18°C° 0 mm 2 mps 731 mmHg 39%
23:00 +18°C° 0 mm 2 mps 731 mmHg 40%

Day after tomorrow, 25 April, Sunday

Time Temperature Precipitation Wind Pressure Humidity
00:00 +17°C° 0 mm 2 mps 731 mmHg 39%
01:00 +17°C° 0 mm 2 mps 730 mmHg 39%
02:00 +17°C° 0 mm 2 mps 730 mmHg 39%
03:00 +16°C° 0 mm 2 mps 730 mmHg 37%
04:00 +16°C° 0 mm 2 mps 730 mmHg 35%
05:00 +16°C° 0 mm 2 mps 730 mmHg 33%
06:00 +17°C° 0 mm 2 mps 730 mmHg 31%
07:00 +20°C° 0 mm 1 mps 731 mmHg 29%
08:00 +22°C° 0 mm 1 mps 731 mmHg 27%
09:00 +23°C° 0 mm 1 mps 731 mmHg 24%
10:00 +25°C° 0 mm 1 mps 731 mmHg 21%
11:00 +27°C° 0 mm 1 mps 731 mmHg 18%
12:00 +28°C° 0 mm 1 mps 731 mmHg 18%
13:00 +29°C° 0 mm 2 mps 731 mmHg 18%
14:00 +30°C° 0 mm 2 mps 730 mmHg 19%
15:00 +30°C° 0 mm 3 mps 730 mmHg 20%
16:00 +30°C° 0 mm 3 mps 730 mmHg 22%
17:00 +29°C° 0 mm 3 mps 730 mmHg 23%
18:00 +27°C° 0 mm 3 mps 730 mmHg 29%
19:00 +25°C° 0 mm 3 mps 730 mmHg 35%
20:00 +22°C° 0 mm 3 mps 730 mmHg 41%
21:00 +21°C° 0 mm 3 mps 730 mmHg 43%
22:00 +20°C° 0 mm 3 mps 730 mmHg 44%
23:00 +20°C° 0 mm 2 mps 730 mmHg 46%

26 April, Monday

Time Temperature Precipitation Wind Pressure Humidity
00:00 +19°C° 0 mm 2 mps 729 mmHg 47%
01:00 +19°C° 0 mm 2 mps 729 mmHg 47%
02:00 +19°C° 0 mm 2 mps 729 mmHg 48%
03:00 +18°C° 0 mm 2 mps 729 mmHg 48%
04:00 +18°C° 0 mm 2 mps 729 mmHg 47%
05:00 +18°C° 0 mm 2 mps 728 mmHg 47%
06:00 +20°C° 0 mm 1 mps 729 mmHg 44%
07:00 +22°C° 0 mm 1 mps 729 mmHg 41%
08:00 +23°C° 0 mm 1 mps 729 mmHg 38%
09:00 +25°C° 0 mm 1 mps 729 mmHg 34%
10:00 +27°C° 0 mm 1 mps 729 mmHg 30%
11:00 +26°C° 0 mm 0 mps 729 mmHg 26%
12:00 +29°C° 0 mm 1 mps 729 mmHg 23%
13:00 +30°C° 0 mm 1 mps 728 mmHg 20%
14:00 +31°C° 0 mm 2 mps 728 mmHg 18%
15:00 +31°C° 0 mm 2 mps 728 mmHg 20%
16:00 +30°C° 0 mm 2 mps 728 mmHg 22%
17:00 +30°C° 0 mm 2 mps 727 mmHg 24%
18:00 +28°C° 0 mm 2 mps 727 mmHg 28%
19:00 +27°C° 0 mm 2 mps 727 mmHg 33%
20:00 +25°C° 0 mm 2 mps 727 mmHg 37%
21:00 +24°C° 0 mm 2 mps 726 mmHg 38%
22:00 +24°C° 0 mm 2 mps 726 mmHg 39%
23:00 +23°C° 0 mm 2 mps 726 mmHg 40%

27 April, Tuesday

Time Temperature Precipitation Wind Pressure Humidity
00:00 +21°C° 0 mm 2 mps 726 mmHg 40%
01:00 +21°C° 0 mm 2 mps 725 mmHg 40%
02:00 +21°C° 0 mm 2 mps 725 mmHg 39%
03:00 +20°C° 0 mm 2 mps 725 mmHg 39%
04:00 +20°C° 0 mm 2 mps 725 mmHg 39%
05:00 +20°C° 0 mm 1 mps 725 mmHg 39%
06:00 +22°C° 0 mm 1 mps 725 mmHg 36%
07:00 +24°C° 0 mm 1 mps 726 mmHg 34%
08:00 +25°C° 0 mm 1 mps 726 mmHg 31%
09:00 +27°C° 0 mm 1 mps 726 mmHg 28%
10:00 +29°C° 0 mm 1 mps 726 mmHg 24%
11:00 +29°C° 0 mm 0 mps 726 mmHg 20%
12:00 +32°C° 0 mm 1 mps 726 mmHg 19%
13:00 +33°C° 0 mm 1 mps 725 mmHg 17%
14:00 +35°C° 0 mm 2 mps 725 mmHg 16%
15:00 +35°C° 0 mm 2 mps 725 mmHg 17%
16:00 +35°C° 0 mm 3 mps 725 mmHg 18%
17:00 +35°C° 0 mm 3 mps 724 mmHg 19%
18:00 +31°C° 0 mm 3 mps 724 mmHg 25%
19:00 +29°C° 0 mm 3 mps 724 mmHg 30%
20:00 +27°C° 0 mm 3 mps 724 mmHg 35%
21:00 +26°C° 0 mm 3 mps 724 mmHg 37%
22:00 +25°C° 0 mm 3 mps 724 mmHg 39%
23:00 +25°C° 0 mm 3 mps 724 mmHg 41%

28 April, Wednesday

Time Temperature Precipitation Wind Pressure Humidity
00:00 +24°C° 0 mm 2 mps 724 mmHg 41%
01:00 +24°C° 0 mm 2 mps 724 mmHg 40%
02:00 +24°C° 0 mm 2 mps 724 mmHg 40%
03:00 +23°C° 0 mm 2 mps 724 mmHg 39%
04:00 +23°C° 0 mm 2 mps 724 mmHg 38%
05:00 +23°C° 0 mm 2 mps 724 mmHg 38%
06:00 +25°C° 0 mm 2 mps 725 mmHg 35%
07:00 +26°C° 0 mm 1 mps 725 mmHg 32%
08:00 +28°C° 0 mm 1 mps 725 mmHg 30%
09:00 +30°C° 0 mm 1 mps 725 mmHg 26%
10:00 +32°C° 0 mm 1 mps 725 mmHg 23%
11:00 +34°C° 0 mm 1 mps 726 mmHg 19%
12:00 +35°C° 0 mm 1 mps 725 mmHg 17%
13:00 +36°C° 0 mm 1 mps 725 mmHg 15%
14:00 +35°C° 0 mm 0 mps 725 mmHg 13%
15:00 +36°C° 0 mm 1 mps 725 mmHg 14%
16:00 +36°C° 0 mm 1 mps 724 mmHg 14%
17:00 +37°C° 0 mm 2 mps 724 mmHg 14%
18:00 +35°C° 0 mm 2 mps 724 mmHg 18%
19:00 +32°C° 0 mm 2 mps 724 mmHg 21%
20:00 +29°C° 0 mm 2 mps 724 mmHg 25%
21:00 +29°C° 0 mm 2 mps 724 mmHg 26%
22:00 +28°C° 0 mm 3 mps 724 mmHg 27%
23:00 +27°C° 0 mm 3 mps 724 mmHg 28%
Show more